TimeCDT,TemperatureF,Dew PointF,Humidity,Sea Level PressureIn,VisibilityMPH,Wind Direction,Wind SpeedMPH,Gust SpeedMPH,PrecipitationIn,Events,Conditions,WindDirDegrees,DateUTC
12:15 AM,59.2,57.0,93,30.16,10.0,Calm,Calm,-,N/A,,Clear,0,2013-07-01 05:15:00
12:35 AM,58.3,57.0,96,30.16,10.0,Calm,Calm,-,N/A,,Clear,0,2013-07-01 05:35:00
12:55 AM,59.0,57.6,95,30.16,10.0,Calm,Calm,-,N/A,,Clear,0,2013-07-01 05:55:00
1:15 AM,58.1,56.5,94,30.16,10.0,Calm,Calm,-,N/A,,Clear,0,2013-07-01 06:15:00
1:35 AM,57.7,56.5,96,30.16,10.0,Calm,Calm,-,N/A,,Clear,0,2013-07-01 06:35:00
1:55 AM,56.5,55.4,96,30.16,10.0,Calm,Calm,-,N/A,,Clear,0,2013-07-01 06:55:00
2:15 AM,56.7,55.8,97,30.16,10.0,Calm,Calm,-,N/A,,Clear,0,2013-07-01 07:15:00
2:35 AM,55.9,54.9,96,30.16,10.0,Calm,Calm,-,N/A,,Clear,0,2013-07-01 07:35:00
2:55 AM,56.3,55.0,96,30.17,10.0,Calm,Calm,-,N/A,,Clear,0,2013-07-01 07:55:00
3:15 AM,56.1,54.9,96,30.17,10.0,Calm,Calm,-,N/A,,Clear,0,2013-07-01 08:15:00
3:35 AM,56.1,54.9,96,30.17,10.0,Calm,Calm,-,N/A,,Clear,0,2013-07-01 08:35:00
3:55 AM,55.4,54.5,97,30.17,10.0,Calm,Calm,-,N/A,,Scattered Clouds,0,2013-07-01 08:55:00
4:15 AM,54.5,53.8,97,30.18,10.0,Calm,Calm,-,N/A,,Scattered Clouds,0,2013-07-01 09:15:00
4:35 AM,54.5,53.8,97,30.18,10.0,Calm,Calm,-,N/A,,Mostly Cloudy,0,2013-07-01 09:35:00
4:55 AM,55.6,54.7,97,30.18,10.0,Calm,Calm,-,N/A,,Mostly Cloudy,0,2013-07-01 09:55:00
5:15 AM,55.4,54.0,95,30.18,10.0,Calm,Calm,-,N/A,,Scattered Clouds,0,2013-07-01 10:15:00
5:35 AM,54.5,53.6,97,30.19,10.0,Calm,Calm,-,N/A,,Scattered Clouds,0,2013-07-01 10:35:00
5:55 AM,55.0,54.0,96,30.19,10.0,Calm,Calm,-,N/A,,Scattered Clouds,0,2013-07-01 10:55:00
6:15 AM,55.0,54.3,97,30.20,10.0,Calm,Calm,-,N/A,,Clear,0,2013-07-01 11:15:00
6:35 AM,56.3,55.4,97,30.20,10.0,Calm,Calm,-,N/A,,Clear,0,2013-07-01 11:35:00
6:55 AM,57.9,56.8,96,30.21,10.0,Calm,Calm,-,N/A,,Clear,0,2013-07-01 11:55:00
7:15 AM,59.4,58.1,96,30.22,10.0,Calm,Calm,-,N/A,,Scattered Clouds,0,2013-07-01 12:15:00
7:35 AM,60.8,58.1,91,30.22,10.0,Calm,Calm,-,N/A,,Scattered Clouds,0,2013-07-01 12:35:00
7:55 AM,61.3,58.5,90,30.22,10.0,Calm,Calm,-,N/A,,Scattered Clouds,0,2013-07-01 12:55:00
8:15 AM,63.5,59.0,85,30.22,10.0,Calm,Calm,-,N/A,,Scattered Clouds,0,2013-07-01 13:15:00
8:35 AM,65.7,59.9,82,30.22,10.0,Calm,Calm,-,N/A,,Scattered Clouds,0,2013-07-01 13:35:00
8:55 AM,67.5,59.2,75,30.22,10.0,Calm,Calm,-,N/A,,Scattered Clouds,0,2013-07-01 13:55:00
9:15 AM,70.2,57.7,65,30.22,10.0,Calm,Calm,-,N/A,,Clear,0,2013-07-01 14:15:00
9:35 AM,71.8,58.6,63,30.22,10.0,Calm,Calm,-,N/A,,Clear,0,2013-07-01 14:35:00
9:55 AM,73.8,54.3,51,30.21,10.0,Calm,Calm,-,N/A,,Clear,0,2013-07-01 14:55:00
10:15 AM,75.4,50.2,41,30.22,10.0,Calm,Calm,-,N/A,,Clear,0,2013-07-01 15:15:00
10:35 AM,75.0,53.1,46,30.22,10.0,Calm,Calm,-,N/A,,Clear,0,2013-07-01 15:35:00
10:55 AM,75.7,53.2,45,30.22,10.0,Calm,Calm,-,N/A,,Clear,0,2013-07-01 15:55:00
11:15 AM,76.8,54.7,46,30.22,10.0,Calm,Calm,-,N/A,,Clear,0,2013-07-01 16:15:00
11:35 AM,77.2,55.8,47,30.22,10.0,Calm,Calm,-,N/A,,Clear,0,2013-07-01 16:35:00
11:55 AM,77.7,56.1,47,30.22,10.0,NNW,4.6,-,N/A,,Clear,330,2013-07-01 16:55:00
12:15 PM,77.5,55.8,47,30.22,10.0,Calm,Calm,-,N/A,,Clear,0,2013-07-01 17:15:00
12:35 PM,78.8,59.0,51,30.21,10.0,NNW,4.6,-,N/A,,Clear,340,2013-07-01 17:35:00
12:55 PM,78.6,59.4,51,30.21,10.0,North,3.5,-,N/A,,Clear,360,2013-07-01 17:55:00
1:15 PM,79.0,59.7,52,30.21,10.0,WNW,3.5,-,N/A,,Clear,300,2013-07-01 18:15:00
1:35 PM,80.1,60.6,51,30.21,10.0,NW,8.1,-,N/A,,Clear,320,2013-07-01 18:35:00
1:55 PM,80.8,59.4,48,30.20,10.0,NNW,6.9,-,N/A,,Clear,330,2013-07-01 18:55:00
2:15 PM,80.4,55.9,43,30.20,10.0,North,8.1,-,N/A,,Scattered Clouds,350,2013-07-01 19:15:00
2:35 PM,81.3,55.9,42,30.19,10.0,NNE,10.4,-,N/A,,Clear,20,2013-07-01 19:35:00
2:55 PM,80.8,56.7,43,30.19,10.0,NNE,6.9,-,N/A,,Clear,20,2013-07-01 19:55:00
3:15 PM,79.2,56.5,46,30.19,10.0,NNW,5.8,-,N/A,,Scattered Clouds,330,2013-07-01 20:15:00
3:35 PM,81.1,55.8,42,30.19,10.0,NNE,6.9,-,N/A,,Scattered Clouds,30,2013-07-01 20:35:00
3:55 PM,80.1,56.5,44,30.19,10.0,North,9.2,-,N/A,,Scattered Clouds,350,2013-07-01 20:55:00
4:15 PM,79.9,54.9,42,30.19,10.0,North,8.1,-,N/A,,Clear,10,2013-07-01 21:15:00
4:35 PM,79.9,54.1,41,30.19,10.0,NNE,5.8,-,N/A,,Clear,20,2013-07-01 21:35:00
4:55 PM,80.8,56.3,43,30.18,10.0,North,10.4,-,N/A,,Scattered Clouds,10,2013-07-01 21:55:00
5:15 PM,79.9,58.5,48,30.18,10.0,NNE,6.9,-,N/A,,Scattered Clouds,30,2013-07-01 22:15:00
5:35 PM,79.3,54.7,42,30.18,10.0,NNE,10.4,-,N/A,,Mostly Cloudy,30,2013-07-01 22:35:00
5:55 PM,79.0,55.4,44,30.18,10.0,North,10.4,-,N/A,,Scattered Clouds,10,2013-07-01 22:55:00
6:15 PM,78.4,56.5,47,30.18,10.0,NNE,6.9,-,N/A,,Clear,30,2013-07-01 23:15:00
6:35 PM,78.4,55.0,44,30.18,10.0,North,9.2,-,N/A,,Clear,360,2013-07-01 23:35:00
6:55 PM,78.6,51.6,39,30.18,10.0,North,6.9,-,N/A,,Clear,360,2013-07-01 23:55:00
7:15 PM,77.5,54.1,44,30.18,10.0,NNE,8.1,-,N/A,,Clear,20,2013-07-02 00:15:00
7:35 PM,76.3,56.5,50,30.18,10.0,NNE,8.1,-,N/A,,Clear,20,2013-07-02 00:35:00
7:55 PM,75.6,57.6,53,30.18,10.0,North,6.9,-,N/A,,Clear,10,2013-07-02 00:55:00
8:15 PM,73.8,59.0,60,30.18,10.0,NNE,6.9,-,N/A,,Clear,30,2013-07-02 01:15:00
8:35 PM,72.0,56.8,59,30.19,10.0,NE,6.9,-,N/A,,Scattered Clouds,50,2013-07-02 01:35:00
8:55 PM,70.3,55.8,60,30.19,10.0,NE,5.8,-,N/A,,Clear,50,2013-07-02 01:55:00
9:15 PM,69.6,54.9,59,30.19,10.0,NNE,3.5,-,N/A,,Clear,30,2013-07-02 02:15:00
9:35 PM,70.0,53.8,56,30.19,10.0,Calm,Calm,-,N/A,,Clear,0,2013-07-02 02:35:00
9:55 PM,70.0,53.2,55,30.19,10.0,Calm,Calm,-,N/A,,Clear,0,2013-07-02 02:55:00
10:15 PM,68.2,54.0,60,30.19,10.0,NE,3.5,-,N/A,,Clear,50,2013-07-02 03:15:00
10:35 PM,66.0,54.3,66,30.19,10.0,ENE,3.5,-,N/A,,Clear,60,2013-07-02 03:35:00
10:55 PM,66.6,53.2,62,30.19,10.0,NE,3.5,-,N/A,,Clear,50,2013-07-02 03:55:00
11:15 PM,66.6,52.3,60,30.20,10.0,Calm,Calm,-,N/A,,Clear,0,2013-07-02 04:15:00
11:35 PM,65.7,52.9,63,30.19,10.0,Calm,Calm,-,N/A,,Clear,0,2013-07-02 04:35:00
11:55 PM,63.9,55.8,75,30.19,10.0,Calm,Calm,-,N/A,,Clear,0,2013-07-02 04:55:00